Voltar ao catálogo

COSMOS 2251 DEB

AtivoLEO
NORAD 34425·DEBRIS·🇷🇺 Russia

Lançado Jun 16, 1993 de Plesetsk Cosmodrome

Loading…

Próximas Passagens (próximas 24 horas)

TLE

AtualizadoSource: Space-Track

Época: Sep 14, 2026, 08:54 UTC

1 34425U 93036RS  26257.37138189  .00001232  00000-0  24244-3 0  9998
2 34425  74.0148 245.4970 0028384 295.2908  64.5319 14.63491175927710

Acompanhe COSMOS 2251 DEB em tempo real com AllMySat

Download on the App Store